Location: Wiler
(46.4041°N, 7.7840°E)
Time: 09:53:46
(UTC+00:00)

USA 234 - Pass Details

Date: 09 April 2020
Orbit: 1102 x 1106 km, 123.0° (Epoch: 14 May)

Event Time Altitude Azimuth Distance (km) Brightness Sun altitude
Rises 19:51:28 0° 55° (NE) 3,926 5.9 -17.1°
Reaches altitude 10° 19:54:12 10° 64° (ENE) 2,965 5.2 -17.5°
Maximum altitude 20:00:10 37° 130° (SE) 1,649 3.7 -18.4°
Drops below altitude 10° 20:06:07 10° 196° (SSW) 2,954 5.3 -19.2°
Sets 20:08:49 0° 204° (SSW) 3,909 6.0 -19.6°
